Volver al catálogo

LAPAN-TUBSAT

ActivoCienciaSSO
NORAD 29709·PAYLOAD·🇮🇩 Indonesia

Lanzado Jan 10, 2007 desde Satish Dhawan Space Centre

Loading…

Próximos Pases (próximas 24 horas)

TLE

ActualizadoSource: Space-Track

Época: Sep 14, 2026, 22:42 UTC

1 29709U 07001A   26257.94606640 -.00000279  00000-0 -25306-4 0  9992
2 29709  98.1398 259.2252 0010804 252.9647 107.0384 14.86023539 64488

Sigue LAPAN-TUBSAT en tiempo real con AllMySat

Download on the App Store